Theta_e
361 361 360 361 360 359 357 356 356 354 351 351 353 354 354 355 355 355 355 357 357 356 354 353 353 353 353 354 353 353 354 354 354 353 353 352 353 353 353 353 351 350
360 361 361 361 360 360 359 356 355 353 352 351 350 352 353 352 352 353 354 354 356 356 356 354 354 354 354 354 353 352 352 352 352 351 351 350 351 352 352 351 350 348
360 361 360 359 360 359 358 356 354 353 352 351 351 351 352 352 352 352 353 353 355 355 356 356 356 356 356 355 353 353 353 353 353 352 351 352 352 353 352 352 352 351
359 359 359 359 358 358 356 356 355 354 352 351 350 350 352 352 353 354 353 353 354 354 355 356 357 357 357 356 356 355 355 356 356 355 354 352 351 352 353 353 353 352
357 358 359 358 358 358 356 356 355 354 352 351 351 350 350 351 352 354 354 354 353 353 353 354 356 356 357 358 357 358 358 358 357 356 355 354 351 351 352 352 352 352
357 357 357 357 357 356 356 355 354 354 353 351 351 350 349 350 350 351 353 354 355 354 353 354 355 356 357 358 359 360 359 358 357 356 355 356 356 355 354 352 353 354
356 356 356 355 355 355 355 355 353 353 353 352 351 349 349 350 349 350 351 352 354 354 354 355 355 354 356 359 360 361 360 359 358 356 355 356 357 357 356 355 354 355
355 356 356 355 356 355 355 354 353 354 353 352 351 350 349 349 350 350 350 350 352 353 354 353 353 353 356 360 361 360 360 359 358 357 355 356 357 358 357 357 356 355
356 355 356 357 356 354 354 354 354 353 353 351 352 352 351 351 350 349 351 351 350 352 354 354 353 355 358 361 361 359 359 358 358 356 356 356 357 358 357 356 357 357
357 356 356 358 358 356 354 355 353 353 353 353 353 353 354 354 352 351 356 357 354 355 357 359 359 359 360 361 361 360 359 358 357 357 356 355 355 355 355 354 353 353
357 356 358 360 361 358 355 356 354 352 353 353 352 356 360 360 356 357 361 361 361 362 362 362 363 362 361 361 360 359 358 358 357 355 354 353 353 353 353 352 351 350
358 357 360 361 361 359 357 356 355 353 352 352 353 359 364 363 360 360 362 361 361 363 362 360 360 361 361 361 359 358 358 358 355 354 353 353 352 353 352 352 352 352
357 357 359 360 362 362 360 356 355 355 354 355 357 361 364 363 361 361 361 360 360 361 359 357 358 359 360 359 359 358 358 357 355 355 355 353 353 352 352 353 354 354
357 357 359 360 362 363 360 357 356 357 358 360 361 363 363 361 360 360 360 360 360 360 358 357 357 357 357 357 358 357 357 357 355 354 354 353 353 353 353 353 353 353
359 360 361 361 361 361 358 357 357 356 359 361 362 362 361 359 358 361 362 361 360 360 358 357 356 355 354 354 355 356 356 356 355 354 354 353 352 352 353 353 353 353
361 362 363 362 360 358 357 356 355 355 357 359 361 361 361 361 361 361 362 361 360 360 358 356 354 355 355 354 355 356 356 356 355 354 353 352 351 353 353 354 354 353
361 362 363 359 357 357 357 356 357 358 359 359 360 361 361 361 359 357 359 360 360 359 358 354 353 355 355 354 354 354 355 355 355 353 353 352 353 354 354 352 352 352
358 361 362 359 358 358 358 359 361 361 359 359 360 359 358 359 357 357 359 359 358 357 356 354 353 354 354 354 352 351 352 354 353 352 352 352 353 353 352 352 351 350
354 358 361 361 361 361 361 361 361 358 357 357 357 356 357 359 358 358 358 358 356 355 354 353 354 353 353 351 350 350 350 352 353 353 352 352 352 352 351 351 351 349
358 359 360 361 361 361 361 360 357 354 353 354 355 355 357 358 356 355 356 354 353 353 353 354 353 351 351 350 349 350 349 350 353 353 351 350 350 350 349 349 348 345
361 360 361 361 361 362 360 356 353 352 350 352 355 356 356 356 356 356 355 353 351 353 354 354 351 349 350 350 349 349 349 351 352 351 349 348 348 348 347 347 347 343
363 362 362 362 361 359 356 352 352 352 351 352 354 354 354 355 355 355 354 351 351 353 352 351 349 349 349 349 349 349 349 350 351 349 347 347 346 345 345 346 346 344
363 362 361 358 355 353 354 355 355 354 353 353 353 353 354 354 353 354 353 351 350 351 350 348 347 347 347 346 347 348 348 348 348 347 346 346 345 344 345 345 346 344
359 358 358 356 354 353 355 356 355 354 354 354 354 354 354 352 352 352 352 351 351 351 350 347 345 343 343 344 346 347 347 347 347 346 346 346 345 343 344 345 344 343
355 355 355 354 353 353 354 354 353 354 355 355 355 356 354 352 352 351 351 352 352 351 348 343 340 338 339 343 345 346 346 346 347 346 346 345 343 342 344 345 343 342
355 356 355 353 353 353 354 354 353 354 356 355 355 354 353 351 350 351 352 352 351 349 345 338 336 338 340 343 344 345 345 346 345 346 346 345 343 342 345 345 344 342
Wind_Speed
18 18 18 17 17 16 15 15 15 15 15 15 15 15 15 16 16 16 16 17 17 16 16 15 14 14 13 12 12 11 11 11 10 10 10 11 11 12 12 12 12 13
18 18 18 17 17 16 15 15 15 15 15 15 13 14 15 15 15 16 17 17 17 16 16 16 15 14 13 13 13 12 12 12 11 11 11 11 11 11 12 12 13 14
19 18 18 17 17 17 16 15 15 14 14 14 13 12 13 13 14 15 15 16 17 16 16 16 15 14 13 12 12 12 11 12 11 11 11 11 11 10 10 11 12 11
18 18 18 17 16 16 16 15 14 14 13 13 14 14 13 12 12 13 14 14 15 15 15 15 14 14 14 13 11 10 10 9 9 10 12 13 13 12 11 12 12 12
19 18 17 17 16 15 15 15 14 14 14 13 13 14 14 13 11 12 14 14 14 13 12 13 14 13 13 13 11 10 10 9 9 10 13 14 14 14 13 14 14 14
14 13 14 15 15 15 15 15 15 15 15 14 14 14 14 14 14 13 13 13 14 13 12 11 13 13 12 12 12 11 10 10 10 10 12 12 13 13 13 14 14 14
11 12 16 17 15 15 15 16 18 17 15 13 13 14 13 14 15 14 14 12 12 14 13 11 11 12 11 12 13 12 10 10 10 11 11 11 12 12 12 13 13 13
21 22 23 20 17 15 13 15 17 15 13 11 11 14 14 13 14 14 14 14 14 15 15 14 13 12 11 10 10 9 9 9 10 11 11 12 13 14 14 14 14 14
24 24 24 21 17 12 10 13 12 11 13 12 10 12 14 14 14 13 13 14 14 13 13 13 12 12 12 10 8 8 9 10 10 10 11 11 12 14 14 14 13 14
22 21 21 19 15 14 15 17 15 13 14 13 10 10 11 12 13 11 8 8 10 8 6 7 8 8 9 9 8 9 9 10 11 11 11 12 13 13 13 14 13 13
22 22 21 17 13 15 19 20 19 17 16 15 14 11 7 9 12 8 3 3 4 4 3 3 3 3 4 6 8 9 9 10 11 12 12 12 13 14 13 13 13 12
24 24 24 19 15 15 16 17 18 19 17 16 16 13 8 9 12 9 4 2 2 1 1 1 0 1 3 6 9 10 11 12 12 12 12 12 13 14 13 13 11 9
26 26 24 21 18 16 15 15 17 17 17 17 17 13 10 9 10 9 6 3 2 1 1 2 3 5 8 10 12 12 11 12 12 12 12 11 11 11 12 11 9 8
27 27 24 22 21 20 17 15 17 19 17 17 15 12 10 9 8 8 6 4 4 4 4 5 6 8 10 11 10 9 10 10 9 9 10 10 9 9 9 10 9 9
26 26 25 24 23 21 19 18 19 20 17 15 13 10 9 8 7 7 6 5 6 6 6 5 5 7 11 11 9 8 7 7 6 6 7 8 7 7 7 7 8 8
26 24 24 24 22 20 21 21 19 18 16 13 11 9 7 7 6 5 4 5 5 6 5 5 5 6 9 10 8 7 5 4 4 4 4 5 5 5 6 6 6 7
26 23 22 23 21 19 19 19 17 15 12 10 9 10 9 6 4 3 3 5 6 7 7 6 7 7 6 5 4 5 5 4 3 3 3 3 3 3 4 6 6 7
27 22 20 21 21 19 18 17 16 12 10 11 11 10 7 4 3 4 4 6 6 6 6 5 6 7 6 5 5 5 6 5 1 1 1 2 3 3 5 6 7 9
25 20 19 19 19 18 16 16 14 11 10 9 9 7 6 6 6 5 5 6 5 3 4 4 5 6 5 4 3 3 5 5 1 1 1 2 3 4 6 8 9 11
22 20 19 19 17 16 15 13 12 11 9 7 7 8 10 10 9 7 7 7 5 4 6 5 4 5 4 3 3 3 5 5 2 2 2 4 5 6 7 8 8 9
19 18 18 17 16 14 12 10 9 9 9 10 12 13 12 11 10 8 8 7 6 8 8 5 4 5 5 4 4 4 5 5 3 3 4 6 6 6 7 7 7 8
17 17 15 14 11 9 10 11 11 12 13 14 14 13 11 11 9 8 7 7 8 10 9 6 7 7 6 6 7 7 7 4 2 2 4 6 6 5 6 5 5 7
16 14 11 9 9 9 10 12 14 16 16 14 12 11 10 9 8 8 8 9 10 10 8 8 10 8 7 9 8 7 6 5 4 5 6 5 4 3 4 4 4 5
7 8 10 11 14 14 15 17 16 15 16 15 13 12 11 9 8 9 9 10 12 11 9 11 12 9 8 10 8 6 7 6 6 6 5 2 2 4 4 4 5 7
6 6 8 11 16 16 15 15 15 14 15 15 13 13 12 11 11 11 11 12 13 12 10 12 12 10 9 9 8 7 8 8 7 6 4 4 5 5 5 6 7 10
9 10 12 13 15 16 15 14 15 14 14 15 14 14 14 12 12 13 13 14 14 12 11 11 12 11 10 9 8 8 8 8 6 5 5 7 6 4 6 8 9 11
Wind_Direction
204 203 205 208 209 209 205 201 202 208 210 205 203 205 208 208 204 205 206 206 209 212 216 219 220 223 226 229 231 232 237 244 251 254 250 248 250 253 257 261 267 271
206 204 205 206 208 212 211 209 210 210 211 213 211 206 207 210 207 205 207 206 205 209 214 213 215 219 221 227 232 229 233 241 247 255 258 258 259 261 264 266 270 274
206 205 206 207 206 208 212 215 218 216 212 211 214 215 212 212 210 206 206 202 199 205 210 207 209 216 218 224 230 227 229 235 237 246 257 261 267 274 275 274 276 278
208 207 206 209 209 206 209 215 217 218 218 211 212 217 217 216 212 205 206 207 206 210 210 205 207 212 215 219 223 227 231 234 235 242 253 260 268 276 276 277 283 283
212 214 209 211 212 208 209 215 218 218 219 216 214 216 216 218 217 211 211 211 213 221 218 210 211 215 218 217 217 224 232 240 247 251 256 261 268 275 274 273 276 277
216 224 226 226 219 211 209 213 220 222 218 218 219 219 216 215 218 224 224 212 209 219 226 222 215 213 216 215 214 219 228 240 253 257 257 260 264 270 272 272 274 274
217 222 231 237 232 221 213 210 215 220 218 217 220 222 222 216 215 223 229 223 213 214 223 231 221 212 213 212 212 217 226 239 253 261 261 261 265 268 269 271 274 276
206 211 215 223 228 223 220 221 220 215 215 221 222 221 225 224 219 219 225 229 225 218 221 231 233 224 216 209 211 222 234 243 252 262 265 264 264 265 267 269 272 276
204 211 211 214 221 221 230 243 235 207 205 221 228 221 222 225 224 224 223 224 224 221 217 219 222 221 213 208 219 236 247 254 260 270 278 278 272 267 268 270 272 275
202 207 205 204 212 213 218 230 226 202 198 209 215 217 221 220 220 227 225 209 207 206 193 187 192 204 214 221 236 248 254 259 263 267 271 277 279 279 283 287 289 291
202 200 197 194 200 210 216 223 220 208 204 204 202 202 206 200 201 206 197 177 183 181 177 180 179 203 234 245 252 256 257 259 263 262 260 266 271 270 275 283 287 291
202 196 193 193 198 208 217 221 218 211 209 207 201 194 184 183 190 191 188 205 215 209 231 240 265 275 263 258 255 255 256 259 266 264 257 260 268 268 268 269 272 282
199 194 193 196 201 210 217 216 213 208 203 202 199 192 182 185 195 204 215 227 223 237 304 290 255 251 253 255 259 263 262 261 265 266 261 261 270 275 274 272 273 281
191 192 194 198 204 213 216 211 209 204 195 192 193 189 188 200 210 213 212 206 206 217 231 236 237 245 252 253 257 262 263 266 271 274 276 277 277 275 275 279 286 287
183 186 189 195 203 209 207 204 207 206 199 196 196 189 193 209 214 206 197 198 212 220 217 208 209 243 259 261 261 258 259 271 276 273 277 277 276 281 286 294 299 300
179 181 184 190 197 202 204 205 206 206 204 201 196 190 195 205 204 199 197 205 214 214 205 182 171 217 252 259 265 269 258 247 248 254 271 274 275 290 304 312 316 321
178 177 181 188 191 196 203 205 201 199 196 189 186 195 200 199 189 192 198 208 216 212 200 178 166 185 214 219 236 254 231 202 214 239 263 287 302 316 324 326 328 341
182 178 182 186 188 191 194 195 191 179 165 173 186 194 195 188 194 209 204 201 212 212 194 182 174 179 194 211 232 242 219 192 183 255 260 315 328 335 348 354 0 8
188 186 189 188 188 189 186 184 180 162 154 175 185 183 185 188 197 214 209 198 208 203 164 165 178 179 190 216 231 225 199 178 148 328 318 13 6 8 18 27 33 29
192 192 195 193 190 188 182 174 164 153 157 171 174 185 190 179 176 194 200 195 194 159 139 144 164 170 172 182 172 167 172 163 117 24 56 67 52 46 46 47 43 35
194 193 193 191 187 183 168 143 134 145 162 173 180 191 190 168 166 185 187 176 162 145 141 141 137 133 134 143 147 142 141 138 115 85 87 83 76 64 53 48 40 38
197 194 188 179 170 151 122 115 131 155 168 179 185 187 179 163 165 175 164 152 148 142 139 135 125 125 130 131 130 130 126 114 105 117 93 76 72 55 41 45 43 42
204 189 164 144 131 124 139 159 166 161 160 168 175 172 167 160 160 163 153 141 139 141 142 138 129 128 136 133 127 125 114 84 64 88 83 71 77 66 59 76 69 46
212 161 144 152 152 156 179 188 174 155 150 155 159 159 160 157 154 152 143 137 140 143 145 140 134 134 138 134 124 110 102 89 76 84 85 64 71 83 95 106 82 51
68 113 144 163 162 166 184 182 160 147 147 150 151 147 144 147 149 143 135 133 134 133 133 135 134 136 138 132 121 104 98 94 86 82 70 44 44 62 93 99 65 41
117 164 169 162 165 171 175 166 152 145 145 146 145 141 138 141 140 135 131 129 126 123 127 133 132 131 130 127 119 105 93 87 86 81 62 48 34 35 78 83 58 34